Location: Congrier
(47.8099°N, 1.1170°W)
Time: 17:57:33
(UTC+00:00)

Meteor 1-27 - Pass Details

Date: 28 January 2023
Orbit: 837 x 893 km, 81.3° (Epoch: 25 March)

Event Time Altitude Azimuth Distance (km) Brightness Sun altitude
Rises 19:41:12 0° 348° (NNW) 3,511 7.6 -27.3°
Reaches altitude 10° 19:43:40 10° 348° (NNW) 2,563 6.9 -27.7°
Maximum altitude 19:49:31 87° 262° (W) 889 4.2 -28.7°
Enters shadow 19:49:41 84° 208° (SSW) 891 4.2 -28.7°
